Regional Weather Roundup
Issued by NWS

Home | Current Version | Previous Version | Text Only | Print | Product List | Glossary On
Versions: 1 2 3 4 5 6 7 8 9 10 11 12 13 14 15 16 17 18 19 20 21 22 23 24 25 26 27 28 29 30 31 32 33 34 35 36 37 38 39 40 41 42 43 44 45 46 47 48 49 50
000
ASUS46 KSEW 262210
RWRWA

WASHINGTON REGIONAL WEATHER ROUNDUP
NATIONAL WEATHER SERVICE SEATTLE WA
300 PM PDT SUN APR 26 2015

NOTE:"FAIR" INDICATES FEW OR NO CLOUDS BELOW 12,000 FEET WITH NO
SIGNIFICANT WEATHER AND/OR OBSTRUCTIONS TO VISIBILITY.

WAZ505-507>509-262300-
SEATTLE, TACOMA, EVERETT, AND VICINITY

CITY           SKY/WX    TMP DP  RH WIND       PRES   REMARKS
EVERETT        CLOUDY    57  36  45 S15       30.22S
BOEING FIELD   PTSUNNY   60  39  45 SW8       30.22F
RENTON         PTSUNNY   59  38  45 CALM      30.22F
SEATAC AIRPORT PTSUNNY   59  41  51 SW9       30.23F
JBLM-MCCHORD   NOT AVBL
PUYALLUP       FAIR      61  41  48 SW9       30.21F
BREMERTON      MOSUNNY   57  41  54 SW15      30.24S
JBLM-FT LEWIS  NOT AVBL
TACOMA NARROWS MOSUNNY   58  39  49 VRB7      30.22F
$$

WAZ001-503-506-510-514-515-262300-
NORTH INTERIOR

CITY           SKY/WX    TMP DP  RH WIND       PRES   REMARKS
BELLINGHAM     PTSUNNY   58  38  47 S9        30.20S
FRIDAY HARBOR  CLOUDY    57  42  57 SE10      30.22R
EASTSOUND      PTSUNNY   57  41  54 S8        30.19S
PORT ANGELES   CLOUDY    51  42  71 VRB3      30.19S
NAS WHIDBEY    PTSUNNY   64  39  39 SE17G28   30.21S
ARLINGTON      CLOUDY    61  39  44 S12G23    30.23S
BURLINGTON     PTSUNNY   59  39  47 SE12G17   30.21S
$$

WAZ020-022-039-040-504-511-512-262300-
SOUTHWEST INTERIOR

CITY           SKY/WX    TMP DP  RH WIND       PRES   REMARKS
SHELTON        CLOUDY    56  41  57 VRB6      30.21S
OLYMPIA        CLOUDY    57  39  51 S16       30.22F
CHEHALIS       CLOUDY    59  41  51 S13G20    30.22F
KELSO          CLOUDY    57  41  54 S10G17    30.29S
VANCOUVER      CLOUDY    59  40  49 VRB6      30.25R
SCAPPOOSE, OR  CLOUDY    57  42  57 SE7       30.25S
PORTLAND, OR   CLOUDY    59  41  51 S6        30.25R
$$

WAZ021-516-517-262300-
WASHINGTON COAST

CITY           SKY/WX    TMP DP  RH WIND       PRES   REMARKS
FORKS          LGT RAIN  51  42  71 SE14G22   30.17S
HOQUIAM        CLOUDY    56  42  59 SE15      30.20S
ASTORIA, OR    LGT RAIN  54  46  74 SE8       30.21R
$$

WAZ019-023-024-040-518-519-262300-
CASCADE MOUNTAINS AND COLUMBIA GORGE

CITY           SKY/WX    TMP DP  RH WIND       PRES   REMARKS
TROUTDALE, OR  CLOUDY    61  40  45 VRB6      30.24R
THE DALLES, OR CLOUDY    67  36  31 NW10      30.19S
$$

WAZ026-027-041>044-520-521-262300-
EAST SLOPES

CITY           SKY/WX    TMP DP  RH WIND       PRES   REMARKS
OMAK           SUNNY     61  26  26 VRB6      30.16S
WENATCHEE      MOSUNNY   63  25  23 E8        30.17S
ELLENSBURG     MOSUNNY   61  20  20 VRB3      30.18S
YAKIMA         MOSUNNY   65  26  23 SE9       30.18S
$$

WAZ028-034-035-262300-
COLUMBIA BASIN

CITY           SKY/WX    TMP DP  RH WIND       PRES   REMARKS
EPHRATA        SUNNY     62  29  28 S14       30.18S
MOSES LAKE     SUNNY     61  19  19 VRB6      30.20S
PASCO          SUNNY     65  27  23 CALM      30.20F
HERMISTON, OR  SUNNY     64  29  26 VRB5      30.20S
$$

WAZ036>038-262300-
NORTHEAST WASHINGTON

CITY           SKY/WX    TMP DP  RH WIND       PRES   REMARKS
SPOKANE GEIGER PTSUNNY   54  27  35 W9        30.19R
SPOKANE FELTS  PTSUNNY   59  30  33 S8        30.19S
FAIRCHILD AFB  LGT RAIN  53  29  39 SW13      30.18S
COEURDALENE,ID MOSUNNY   57  28  33 SW7G17    30.20R
DEER PARK      MOSUNNY   57  30  35 W10       30.19S
$$

WAZ029>033-262300-
SOUTHEAST WASHINGTON

CITY           SKY/WX    TMP DP  RH WIND       PRES   REMARKS
PULLMAN        SUNNY     53  23  31 NW5       30.22R
LEWISTON, ID   SUNNY     62  27  26 N5        30.19S
WALLA WALLA    SUNNY     62  28  27 W5        30.20S
PENDLETON, OR  SUNNY     61  29  29 NW9       30.19S
$$


USA.gov is the U.S. government's official web portal to all federal, state and local government web resources and services.